Dewpoint
50 35 31 22 13 12 14 9 13 29 50 53 52 50 51 54 48 45 63 61 62 62 64 66 69 70 71 71 71 71 72 72 71 70 70 71 71 70 70 69 68 66 66 65 67 68 68 68 68
43 30 16 17 12 9 9 12 26 44 53 54 53 54 54 55 60 61 60 60 60 62 64 65 68 69 70 70 70 70 70 70 71 71 71 70 70 70 68 66 64 64 64 66 66 67 67 68 67
35 24 9 13 12 11 11 14 41 46 49 44 53 55 56 56 60 61 62 61 62 63 63 64 68 68 69 69 69 69 69 70 70 70 70 69 68 68 67 66 66 66 65 65 65 66 65 67 67
25 13 10 9 9 11 14 20 37 44 47 51 54 53 57 59 60 63 62 62 62 62 63 64 66 68 68 68 68 68 68 68 69 70 69 68 67 66 63 63 64 66 66 67 65 66 67 66 65
14 10 7 5 7 11 22 39 40 43 46 47 48 49 55 59 63 63 62 61 61 61 63 63 65 67 68 68 67 67 68 68 68 68 69 68 68 68 67 67 65 67 66 65 66 65 67 66 63
10 9 6 5 6 9 11 27 36 44 45 45 47 48 52 58 62 62 63 62 61 62 64 64 65 65 65 66 66 66 67 67 67 68 68 68 68 68 67 67 68 66 63 61 61 62 65 64 64
8 6 6 5 8 8 12 16 12 24 36 37 46 46 52 55 59 62 63 63 62 63 63 64 64 65 65 64 64 65 66 66 67 67 67 66 66 66 66 66 66 66 66 66 64 62 63 63 64
10 7 4 4 5 4 6 13 14 13 20 46 47 42 51 54 59 61 62 63 63 62 63 62 63 63 62 61 64 64 64 65 65 66 65 65 64 64 65 65 65 64 63 63 64 64 64 63 63
10 9 9 7 7 13 12 13 15 16 34 33 47 43 45 55 58 57 57 57 59 62 62 62 62 62 61 59 61 64 64 64 65 65 64 63 62 61 61 63 63 61 61 60 59 59 58 57 57
10 11 14 13 10 12 15 22 14 20 38 45 46 52 52 58 57 55 55 55 57 59 59 62 62 62 61 59 59 61 62 62 62 62 63 62 60 59 60 61 61 61 60 59 58 58 57 55 54
17 16 15 18 17 16 21 20 20 17 32 44 40 49 55 57 56 55 54 53 54 56 55 56 58 59 60 60 59 60 61 61 61 60 60 60 60 59 58 58 58 57 58 56 55 54 54 52 52
17 21 19 19 21 21 21 33 23 32 18 40 44 51 56 56 54 55 54 49 47 49 53 55 58 57 55 59 60 60 60 60 59 59 59 58 57 57 57 57 57 55 55 54 53 53 54 52 53
20 21 21 22 22 21 23 19 19 19 20 26 49 53 54 54 52 54 51 49 45 46 50 54 56 56 54 56 55 56 56 58 57 56 55 57 57 55 55 55 54 54 54 54 53 53 53 52 53
26 24 23 24 22 23 23 21 21 21 21 26 48 51 52 51 52 47 42 45 44 45 49 53 55 56 53 52 52 51 51 51 52 52 53 55 56 55 55 54 53 53 53 52 51 50 49 48 49
27 23 24 24 23 21 20 13 14 18 21 24 40 48 46 46 45 41 41 40 43 44 48 52 53 54 53 52 51 49 48 48 49 51 51 53 53 52 54 53 52 52 51 50 48 46 41 41 42
22 21 18 20 23 18 15 13 14 18 19 22 28 32 34 37 38 37 37 37 37 42 46 49 50 50 50 52 50 49 48 47 47 49 50 49 52 49 49 48 49 48 50 48 39 39 36 37 38
20 16 17 19 24 25 18 16 18 23 21 21 22 25 30 31 30 32 35 33 35 40 44 45 46 49 48 50 49 47 46 44 45 48 48 48 48 49 47 47 46 44 44 43 39 38 37 36 36
17 17 18 19 22 27 25 22 24 25 22 21 22 22 23 25 26 29 30 34 34 40 43 42 42 47 46 43 42 41 41 42 42 44 48 48 47 47 43 45 46 42 42 41 39 37 39 37 37
20 23 23 23 24 27 26 26 27 25 21 22 23 22 28 30 33 33 33 35 36 39 38 37 33 40 39 38 37 37 38 39 40 41 45 47 47 46 43 43 44 42 41 40 40 38 37 38 38
23 24 22 25 26 28 27 25 19 19 20 24 27 27 28 31 32 34 35 34 34 35 35 36 34 33 36 36 35 35 36 37 39 40 41 45 46 46 43 41 42 43 41 40 40 39 39 38 39
21 24 23 24 27 28 26 23 19 21 24 24 25 26 27 30 31 32 32 33 33 33 33 34 34 34 36 36 35 35 36 36 37 37 38 40 45 46 44 41 40 41 42 40 39 39 38 37 38
21 24 26 26 27 23 26 21 20 19 21 24 25 25 26 27 29 30 32 33 33 33 34 35 36 36 36 37 36 34 33 33 35 36 36 37 41 43 44 42 40 39 41 40 39 39 38 38 36
25 29 28 29 28 27 24 20 22 23 19 25 28 27 28 29 29 30 30 30 32 34 35 37 39 40 40 40 39 38 37 37 37 38 37 37 38 42 42 43 41 41 42 41 38 35 32 34 32
30 30 30 30 28 23 25 23 22 23 24 27 28 28 30 29 29 31 33 33 34 36 37 38 39 39 40 41 41 41 40 40 39 39 39 39 39 39 41 41 41 38 36 35 35 35 34 34 35
30 30 24 21 24 23 27 23 24 26 27 27 26 28 29 30 30 32 33 33 36 37 39 39 40 40 41 41 41 41 41 41 41 41 41 39 38 36 35 36 36 37 38 39 40 40 39 38 37
29 30 25 18 23 25 27 23 24 27 31 30 31 31 33 33 32 36 36 37 38 39 40 40 40 41 41 41 41 42 41 40 41 42 41 40 36 35 37 38 39 40 40 40 41 40 40 41 40
30 29 31 27 28 25 27 28 28 29 32 34 33 34 35 35 35 36 37 38 39 39 39 40 41 41 41 41 42 40 37 37 39 37 37 36 36 37 38 40 41 41 41 42 42 40 38 38 37
30 32 28 29 18 23 27 27 27 29 32 31 33 34 35 36 37 38 38 39 39 39 40 41 41 40 41 41 39 34 35 36 36 34 34 35 36 38 40 40 41 41 41 41 40 37 35 35 34
31 31 31 31 29 26 23 27 32 30 32 32 34 35 35 36 37 39 39 40 40 40 40 40 40 40 41 39 34 35 36 33 32 32 34 35 37 38 39 37 38 39 38 37 35 35 33 32 31
32 32 32 29 28 28 27 27 31 31 33 35 36 37 37 36 39 40 40 41 40 40 40 40 40 41 37 33 33 34 34 31 31 32 32 34 35 36 34 35 36 36 35 34 32 31 30 29 28
Lifted_Index
12 12 10 8 7 5 5 4 3 -0 -2 -3 -3 -3 -4 -4 -3 -3 -4 -5 -4 -3 -3 -4 -6 -7 -7 -7 -8 -8 -9 -9 -9 -8 -8 -8 -8 -7 -7 -6 -5 -4 -5 -5 -6 -6 -6 -6 -5
11 11 9 8 6 5 5 4 1 -1 -3 -3 -4 -4 -4 -4 -4 -4 -5 -5 -4 -3 -3 -4 -6 -7 -7 -7 -7 -8 -8 -8 -8 -8 -8 -8 -8 -7 -7 -6 -5 -4 -5 -5 -6 -6 -6 -5 -5
10 9 7 6 5 4 4 3 0 -2 -2 -3 -4 -5 -5 -5 -5 -5 -5 -5 -5 -4 -3 -4 -5 -7 -7 -7 -7 -7 -7 -7 -8 -8 -8 -8 -7 -7 -6 -6 -5 -5 -5 -5 -5 -5 -5 -4 -4
8 7 6 5 4 4 3 1 -0 -1 -2 -3 -4 -5 -5 -5 -6 -5 -5 -5 -4 -4 -3 -4 -5 -6 -6 -6 -6 -6 -6 -6 -7 -7 -7 -7 -6 -6 -6 -6 -5 -5 -6 -5 -5 -5 -5 -4 -3
6 5 4 3 3 3 2 1 0 -0 -1 -2 -3 -4 -5 -5 -5 -5 -5 -5 -4 -3 -3 -3 -4 -4 -4 -5 -5 -5 -5 -5 -6 -6 -6 -6 -6 -6 -6 -5 -5 -5 -5 -4 -4 -4 -4 -3 -2
5 4 3 2 3 3 3 3 2 1 0 -1 -2 -3 -4 -5 -5 -5 -5 -5 -4 -4 -4 -3 -3 -3 -3 -4 -4 -4 -4 -5 -5 -5 -5 -5 -5 -5 -5 -5 -5 -5 -4 -3 -3 -3 -3 -2 -2
4 3 2 2 2 3 3 4 3 3 2 1 -0 -1 -3 -5 -6 -6 -6 -5 -5 -4 -4 -4 -4 -3 -3 -3 -3 -3 -4 -4 -4 -4 -4 -4 -4 -4 -4 -4 -4 -4 -4 -3 -3 -2 -2 -2 -2
4 3 2 2 2 3 3 4 4 4 3 1 1 -0 -3 -5 -6 -6 -6 -6 -5 -5 -5 -4 -4 -4 -3 -3 -2 -3 -3 -4 -4 -4 -4 -3 -3 -3 -3 -3 -3 -3 -3 -3 -3 -2 -2 -2 -2
3 3 2 3 3 3 4 4 5 4 3 2 1 -0 -2 -4 -5 -5 -6 -6 -5 -5 -5 -5 -5 -4 -4 -3 -2 -2 -3 -3 -3 -3 -3 -3 -2 -2 -2 -2 -2 -1 -1 -1 -1 -2 -1 -1 -1
3 3 3 4 4 4 4 5 5 4 3 1 1 -0 -2 -4 -5 -5 -5 -5 -5 -5 -4 -4 -4 -4 -3 -3 -3 -2 -2 -2 -3 -2 -2 -2 -2 -1 -1 -1 -0 -0 -0 0 0 1 1 1 1
4 4 4 4 5 5 5 5 5 4 3 2 1 -0 -3 -4 -4 -4 -4 -4 -4 -4 -3 -2 -2 -2 -3 -3 -2 -2 -2 -2 -2 -2 -2 -2 -2 -1 -1 -0 -0 0 1 1 2 3 3 3 3
4 4 4 4 5 5 5 5 5 5 4 3 2 -0 -2 -3 -3 -3 -3 -3 -3 -3 -1 0 -0 -1 -1 -2 -2 -2 -2 -2 -2 -2 -1 -1 -1 -1 -0 0 0 1 2 3 3 3 3 4 4
4 4 4 4 4 4 5 5 5 5 5 4 2 0 -1 -1 -1 -1 -2 -2 -2 -1 1 2 1 0 -0 -1 -2 -2 -2 -2 -1 -1 -1 -0 0 1 1 1 1 2 3 3 4 4 5 5 5
4 4 4 4 4 4 5 5 5 5 5 4 2 1 0 0 0 -0 -1 -1 -0 1 2 3 2 1 1 0 -0 -0 -0 -0 0 1 1 2 2 2 2 2 2 3 4 4 6 7 8 8 9
4 4 4 4 4 4 5 5 5 5 5 4 3 2 1 1 1 0 0 0 1 2 3 3 3 2 2 2 1 1 2 2 3 3 3 4 4 3 3 3 3 3 4 6 7 9 10 11 11
4 4 4 4 4 4 4 4 5 5 4 4 4 3 2 2 2 1 1 2 2 2 3 3 3 3 3 3 3 3 4 4 5 5 5 5 5 5 5 4 4 5 6 7 9 10 11 11 11
4 3 4 4 4 4 4 4 4 4 4 4 4 4 3 3 3 3 3 3 3 3 4 4 4 4 4 4 4 4 5 6 6 7 7 6 6 6 6 6 6 7 7 8 9 10 10 10 10
3 3 4 4 4 4 4 4 4 4 4 4 4 4 4 4 4 4 4 4 4 4 4 4 4 4 4 5 5 5 6 6 7 7 7 7 7 7 7 7 8 8 8 9 10 10 10 10 9
4 4 4 4 5 4 4 4 4 4 4 4 4 4 4 5 5 5 5 5 4 4 4 5 5 5 5 5 5 6 6 6 7 7 7 7 7 7 7 7 8 8 8 9 9 9 9 9 9
5 4 4 4 5 4 4 4 4 4 4 5 5 5 5 5 5 5 5 5 4 4 4 5 4 4 5 5 5 6 6 6 6 6 7 7 7 7 7 7 7 7 8 8 8 8 8 9 9
5 5 4 4 4 4 3 3 3 4 4 5 5 5 5 5 5 5 5 4 4 4 4 4 4 4 5 5 6 6 6 6 6 6 6 6 7 7 7 7 7 7 7 7 7 8 8 8 8
4 5 5 4 4 3 3 3 3 4 4 4 5 5 4 4 5 5 4 4 4 4 4 4 4 4 5 5 6 6 5 5 6 6 6 5 5 6 6 7 6 6 7 7 8 8 9 9 8
4 5 5 4 3 2 2 2 3 3 3 4 4 4 4 4 4 4 4 4 4 4 4 3 4 4 4 5 5 5 5 5 5 5 5 5 5 5 6 6 6 6 6 7 7 8 8 8 8
4 4 4 3 2 2 2 3 3 3 3 3 3 3 4 4 4 4 4 4 4 4 4 4 4 4 4 4 4 4 4 4 5 5 5 5 5 5 5 5 5 5 5 6 6 7 7 7 8
4 4 3 2 1 1 2 3 3 4 3 3 3 3 4 4 4 4 4 4 3 4 4 4 4 4 4 4 4 4 4 5 5 5 6 6 6 6 5 5 5 5 5 6 7 7 7 7 7
4 4 2 1 1 2 2 3 3 3 3 3 3 4 4 4 4 4 4 4 4 4 4 4 4 4 4 5 5 5 5 5 6 6 6 6 6 6 6 6 6 6 7 7 7 7 7 6 6
4 4 3 3 2 2 2 3 3 3 3 3 4 4 4 4 3 3 4 4 4 4 4 5 5 5 5 6 6 6 6 6 6 6 7 7 7 6 6 7 7 8 8 8 7 7 7 7 7
3 4 4 3 2 2 2 2 2 3 3 3 4 4 4 3 3 3 3 4 4 4 5 5 6 6 6 6 6 6 7 7 7 7 7 7 7 7 7 8 8 8 8 8 7 7 8 8 8
3 3 3 3 3 2 2 2 3 3 4 4 3 3 3 3 3 3 3 3 4 5 5 6 6 6 6 6 6 6 7 7 7 7 6 6 6 7 7 8 8 9 9 8 8 8 8 9 9
3 3 3 3 4 3 3 3 3 3 4 4 3 3 3 3 3 3 3 3 4 5 6 6 6 6 6 6 6 6 7 7 7 7 6 6 6 7 7 8 9 9 9 9 8 8 9 9 9